Weather History for KCVG - March, 2012

Change the Weather History Date:

Saturday, March 3, 2012

  Actual Average Record
Temperature  
Mean Temperature 39 °F 39 °F  
Max Temperature 45 °F 48 °F 77 °F (1992)
Min Temperature 33 °F 30 °F -11 °F (1980)
Degree Days  
Heating Degree Days 26 26  
Month to date heating degree days 59 79  
Since 1 July heating degree days 3384 3906  
Cooling Degree Days 0 0  
Month to date cooling degree days 0 0  
Year to date cooling degree days 0 0  
Moisture  
Dew Point 26 °F    
Average Humidity 64    
Maximum Humidity 82    
Minimum Humidity 45    
Precipitation  
Precipitation 0.00 in 0.10 in 1.40 in (1977)
Month to date precipitation 0.36 0.31  
Year to date precipitation 7.29 6.12  
Snow  
Snow 0.00 in 0.10 in 3.80 in (1912)
Month to date snowfall 0.0 0.4  
Since 1 July snowfall 4.1 19.0  
Snow Depth 0.00 in    
Sea Level Pressure  
Sea Level Pressure 29.80 in    
Wind  
Wind Speed 14 mph (West)    
Max Wind Speed 24 mph    
Max Gust Speed 31 mph    
Visibility 10 miles    
Events      
T = Trace of Precipitation, MM = Missing Value Source: NWS Daily Summary

Daily Weather History Graph

Daily Weather History Graph

Search for Another Location

Airport or City:

Trip Planner

Search our weather history database for the weather conditions in past years. The results will help you decide how hot, cold, wet, or windy it might be!

Date:

Astronomy

Mar. 03, 2012 Rise Set
Actual Time 7:07 AM EST 6:33 PM EST
Civil Twilight 6:40 AM EST 7:00 PM EST
Nautical Twilight 6:09 AM EST 7:31 PM EST
Astronomical Twilight 5:39 AM EST 8:02 PM EST
Moon 1:45 PM EST (3/3) 3:42 AM EST (3/3)
Length of Visible Light 12h 19m
Length of Day
11h 26m
Waxing Gibbous, 75% of the Moon is Illuminated
Mar 3
Waxing Gibbous
Mar 8
Full
Mar 14
Last Quarter
Mar 22
New
Mar 30
First Quarter

Hourly Weather History & Observations

Time (EST) Temp. Windchill Dew Point Humidity Pressure Visibility Wind Dir Wind Speed Gust Speed Precip Events Conditions
12:26 AM 39.2 °F 28.7 °F 30.2 °F 70% 29.67 in 10.0 mi WNW 23.0 mph 28.8 mph N/A   Scattered Clouds
12:52 AM 37.0 °F 31.0 °F 30.0 °F 76% 29.69 in 10.0 mi West 8.1 mph - N/A   Clear
1:52 AM 37.0 °F 28.1 °F 28.9 °F 73% 29.72 in 10.0 mi West 15.0 mph 21.9 mph N/A   Scattered Clouds
2:05 AM 35.6 °F 26.6 °F 28.4 °F 75% 29.73 in 10.0 mi West 13.8 mph - N/A   Mostly Cloudy
2:15 AM 35.6 °F 26.6 °F 28.4 °F 75% 29.73 in 10.0 mi West 13.8 mph - N/A   Scattered Clouds
2:52 AM 36.0 °F 28.5 °F 28.0 °F 73% 29.75 in 10.0 mi West 10.4 mph 19.6 mph N/A   Scattered Clouds
3:52 AM 36.0 °F 29.6 °F 28.0 °F 73% 29.75 in 10.0 mi WSW 8.1 mph - N/A   Partly Cloudy
4:52 AM 34.0 °F 26.0 °F 28.0 °F 79% 29.77 in 10.0 mi SSW 10.4 mph - N/A   Clear
5:52 AM 33.8 °F 25.3 °F 28.4 °F 81% 29.78 in 10.0 mi SW 11.5 mph - N/A   Clear
6:41 AM 33.8 °F 25.3 °F 28.4 °F 81% 29.79 in 10.0 mi SW 11.5 mph 18.4 mph N/A   Mostly Cloudy
6:52 AM 34.0 °F 26.6 °F 28.9 °F 82% 29.79 in 10.0 mi SW 9.2 mph - N/A   Overcast
7:52 AM 35.1 °F 27.9 °F 28.9 °F 78% 29.80 in 10.0 mi SW 9.2 mph 19.6 mph N/A   Overcast
8:52 AM 36.0 °F 27.1 °F 30.0 °F 79% 29.83 in 10.0 mi SW 13.8 mph 19.6 mph N/A   Overcast
9:52 AM 37.0 °F 28.9 °F 28.9 °F 73% 29.83 in 10.0 mi WSW 12.7 mph 26.5 mph N/A   Overcast
10:52 AM 39.9 °F 31.1 °F 28.0 °F 63% 29.82 in 10.0 mi WSW 17.3 mph 26.5 mph N/A   Mostly Cloudy
11:52 AM 42.1 °F 33.9 °F 28.0 °F 58% 29.82 in 10.0 mi WSW 17.3 mph 26.5 mph N/A   Mostly Cloudy
12:52 PM 41.0 °F 32.2 °F 26.1 °F 55% 29.82 in 10.0 mi WSW 18.4 mph 25.3 mph N/A   Mostly Cloudy
1:52 PM 45.0 °F 37.4 °F 28.0 °F 52% 29.80 in 10.0 mi West 18.4 mph 28.8 mph N/A   Mostly Cloudy
2:52 PM 43.0 °F 34.0 °F 26.1 °F 51% 29.78 in 10.0 mi West 21.9 mph 27.6 mph N/A   Mostly Cloudy
3:52 PM 42.1 °F 34.2 °F 25.0 °F 51% 29.78 in 10.0 mi West 16.1 mph - N/A   Scattered Clouds
4:52 PM 42.1 °F 34.9 °F 24.1 °F 49% 29.80 in 10.0 mi West 13.8 mph 23.0 mph N/A   Mostly Cloudy
5:52 PM 41.0 °F 32.8 °F 21.9 °F 47% 29.83 in 10.0 mi West 16.1 mph - N/A   Overcast
6:52 PM 39.9 °F 32.9 °F 24.1 °F 53% 29.84 in 10.0 mi West 11.5 mph - N/A   Overcast
7:52 PM 37.0 °F 27.4 °F 24.1 °F 59% 29.86 in 10.0 mi NW 17.3 mph - N/A   Overcast
8:52 PM 36.0 °F 27.1 °F 21.0 °F 55% 29.87 in 10.0 mi WNW 13.8 mph - N/A   Mostly Cloudy
9:52 PM 34.0 °F 24.6 °F 19.9 °F 56% 29.88 in 10.0 mi WNW 13.8 mph - N/A   Overcast
10:52 PM 33.1 °F 23.0 °F 19.9 °F 59% 29.89 in 10.0 mi WNW 15.0 mph - N/A   Overcast
11:52 PM 33.1 °F 23.9 °F 19.9 °F 59% 29.88 in 10.0 mi West 12.7 mph - N/A   Overcast